User: anonymous   Login
Location: Unspecified
(0.0000°N, 0.0000°E)
Time: 07:45:35
(UTC+00:00)
Language:

STARLINK-35360 - Orbit

View from above orbital plane
View from above orbital plane
View from above satellite
View from above satellite

Ground track
Ground track

The orbit is defined by the following mean orbital elements,

1 66444U          26145.44286477 +.00000000 +00000-0 +44617-3 0 00002
2 66444  43.0003 200.5358 0000886 272.2927  87.7824 15.27589225    04
Epoch (UTC): 25 May 2026 10:37:43
Eccentricity: 0.0000886
inclination: 43.0003°
perigee height: 482 km
apogee height: 484 km
right ascension of ascending node: 200.5358°
argument of perigee: 272.2927°
revolutions per day: 15.27589225
mean anomaly at epoch: 87.7824°

The dashed part of the orbit path shows where the satellite is in the earth's shadow,  

DLR